Wind_Speed
6 7 2 2 2 3 5 3 0 2 3 5 4 8 12 17 8 11 4 5 5 3 6 8 6 4 3 3 5 9 12 14 14 15 14 12 12 13 13 14 14 14 14 14
6 3 1 2 3 4 4 2 2 3 2 3 6 13 7 4 4 5 4 9 8 7 7 5 3 2 2 4 8 13 15 14 15 15 15 14 15 14 14 14 15 15 15 15
6 1 2 2 5 4 3 2 1 2 7 1 7 7 4 1 6 10 10 8 6 5 3 1 1 2 5 8 12 13 13 13 13 14 14 14 15 15 15 15 15 15 16 16
5 2 2 3 4 2 1 2 2 2 4 2 5 4 4 3 2 5 6 6 5 4 3 3 3 4 7 10 12 13 12 12 12 13 14 15 16 18 18 18 18 16 16 16
1 2 4 5 2 2 2 2 2 2 4 4 1 3 6 3 3 2 3 5 4 4 4 3 5 8 9 9 11 11 11 11 12 13 15 16 17 18 19 19 19 19 17 17
2 2 3 2 3 3 3 4 6 4 3 3 1 4 5 4 4 3 3 5 5 5 4 5 8 10 10 11 11 12 12 13 13 13 14 16 17 18 19 19 20 20 19 18
4 2 2 1 2 1 5 6 4 5 3 5 2 2 8 4 3 6 10 8 7 5 7 8 10 11 11 12 12 13 14 15 15 14 15 16 18 20 22 21 21 21 20 18
4 5 1 2 2 2 2 5 5 5 2 4 3 5 5 4 1 11 11 10 7 8 5 7 9 9 9 11 15 16 19 21 19 17 17 19 21 23 23 21 22 21 20 20
3 2 2 3 2 2 2 2 2 5 2 3 3 7 6 4 3 8 12 10 10 6 3 5 5 7 11 15 17 19 20 20 21 21 23 23 22 22 22 21 21 21 20 20
3 1 1 1 2 2 2 4 2 3 1 4 5 5 5 6 8 7 9 12 9 5 3 4 2 4 12 18 18 19 20 21 22 23 22 22 22 21 21 21 21 21 21 21
3 3 2 2 4 6 1 1 2 2 4 4 3 6 6 9 9 10 14 12 8 4 3 3 2 6 14 20 21 22 23 24 24 23 22 22 22 22 22 23 22 22 22 21
1 4 3 6 1 3 3 5 5 4 4 2 2 7 2 5 12 14 13 13 9 5 4 4 5 9 16 23 25 25 25 24 23 23 23 23 22 23 23 22 21 20 21 21
4 1 2 6 4 2 4 5 4 3 2 6 5 6 3 2 7 8 13 15 11 7 6 6 7 12 19 25 24 24 23 23 23 24 24 23 23 23 23 23 23 22 23 23
3 3 5 6 4 3 4 5 6 5 3 4 7 7 3 5 8 12 15 18 12 8 6 5 9 14 23 24 24 24 24 23 23 22 22 21 21 21 22 23 23 22 22 23
3 3 3 6 8 5 5 7 8 9 7 7 1 10 5 8 11 25 19 17 12 6 4 6 12 20 23 24 24 24 22 22 21 20 18 18 19 19 20 21 22 22 22 22
1 2 1 5 3 3 6 12 14 16 13 11 17 23 15 24 17 17 15 15 8 6 4 9 16 19 22 24 25 24 23 20 18 16 16 16 18 19 20 21 22 22 22 22
5 3 2 5 4 7 7 7 8 4 5 9 9 11 3 1 9 20 17 13 8 5 6 14 17 21 22 22 22 22 21 19 18 18 18 19 20 20 20 22 22 23 24 23
6 5 3 4 4 2 6 3 6 8 6 13 8 5 4 7 8 5 11 9 7 5 10 16 19 21 18 17 17 18 18 18 18 19 19 19 21 22 23 24 24 25 25 25
4 4 2 3 3 7 8 2 4 4 5 2 9 8 4 4 4 3 9 9 7 9 14 18 20 19 19 18 18 17 16 16 17 18 19 20 22 23 24 24 25 26 27 28
3 1 3 2 3 5 2 1 0 2 5 5 2 3 4 3 1 4 8 13 10 12 16 17 20 19 19 17 15 14 15 17 18 19 20 21 22 23 24 25 26 27 27 28
3 1 9 6 4 7 7 8 1 2 3 3 6 6 4 4 8 12 7 12 14 15 18 21 23 22 20 17 15 16 19 20 22 23 24 24 24 24 24 25 26 26 27 29
7 7 4 4 4 8 5 2 4 2 5 10 15 17 15 16 18 15 13 17 17 19 26 26 24 19 18 19 18 19 21 21 22 23 25 26 26 25 25 25 26 27 27 28
3 5 4 9 6 2 5 4 1 5 15 16 18 23 23 26 25 26 23 15 18 23 24 22 18 19 18 19 23 23 20 22 22 23 24 26 27 28 28 29 29 30 30 30
3 1 3 0 1 3 17 8 4 21 17 24 24 25 23 22 21 17 17 20 24 25 25 19 19 20 22 21 20 22 24 25 24 25 26 28 29 31 31 31 30 31 31 31
4 4 4 6 10 18 6 18 27 31 31 26 23 21 19 16 12 14 20 23 20 20 19 18 20 21 23 24 26 27 29 27 27 29 30 32 33 34 35 34 34 34 34 31
6 5 7 11 17 14 17 28 28 26 23 20 16 10 10 13 18 17 16 15 16 18 20 23 24 26 28 29 31 32 32 32 33 35 36 37 38 38 37 36 37 34 34 33
Wind_Direction
29 66 78 101 42 115 107 104 244 294 22 338 267 287 300 313 343 357 5 227 244 221 185 191 218 242 280 329 337 337 334 330 330 332 325 324 331 339 341 343 343 342 336 331
28 81 211 299 44 79 58 90 320 290 1 5 342 297 282 316 7 12 61 118 126 134 147 172 204 258 314 339 333 335 331 329 328 327 328 328 329 334 335 335 336 337 336 334
114 136 347 50 43 75 37 68 47 259 323 47 320 316 348 3 63 74 87 99 108 130 135 117 26 348 342 343 336 337 339 339 334 328 330 329 329 329 328 329 327 327 332 334
80 335 75 72 73 55 80 41 73 21 32 279 31 277 301 324 102 51 76 106 111 109 107 83 38 3 337 331 332 331 337 342 343 344 341 337 336 336 334 328 325 325 323 324
249 43 56 68 39 14 137 62 64 72 66 36 315 72 269 309 192 156 104 122 109 102 91 53 353 337 340 346 351 351 357 358 352 349 343 340 337 333 330 328 322 318 318 318
78 53 52 100 67 72 135 76 44 52 68 10 230 128 276 206 199 151 162 148 140 120 87 59 55 53 50 37 24 17 14 7 358 352 348 342 338 334 328 323 319 317 314 312
22 4 3 84 114 56 66 52 338 351 9 221 245 39 245 264 257 181 171 163 141 126 116 85 68 59 47 26 12 359 351 352 343 332 330 328 328 326 322 325 319 316 315 312
127 325 40 12 84 165 79 133 154 235 244 274 341 239 256 219 129 152 163 157 162 150 121 88 72 53 28 7 354 345 339 337 337 329 321 319 318 317 314 314 314 314 313 313
125 294 5 49 36 92 141 186 163 103 0 32 232 279 292 193 165 169 173 177 174 171 148 115 71 30 11 354 346 339 336 336 332 327 321 319 319 319 316 311 307 311 311 308
176 41 29 22 70 35 171 158 68 5 212 270 284 276 239 209 198 193 199 191 184 182 171 158 135 21 3 355 345 338 338 338 334 329 326 324 324 320 315 312 308 304 306 302
120 110 295 42 200 182 136 228 89 133 163 202 293 268 212 205 191 189 204 191 186 186 178 198 224 335 343 346 342 340 337 335 333 331 331 329 327 324 322 320 315 307 302 303
173 142 210 210 291 205 198 209 160 134 223 229 158 272 305 216 191 194 202 191 192 194 216 240 281 323 337 340 338 336 335 333 331 331 330 330 327 325 324 325 325 315 309 306
184 359 5 341 356 349 232 206 170 118 83 207 154 261 360 171 197 204 210 200 201 215 238 255 297 321 336 336 335 335 336 335 333 333 332 333 333 332 332 331 328 322 315 311
114 164 194 198 209 134 218 208 192 164 150 200 227 277 226 223 223 232 218 207 211 236 262 291 326 329 334 334 333 333 335 335 334 335 336 338 340 342 338 335 333 330 325 319
122 241 177 266 249 251 242 222 196 206 206 201 226 236 236 225 219 225 216 207 215 236 246 322 336 336 332 330 330 332 334 336 337 340 344 348 351 350 348 346 345 341 335 330
148 257 145 284 326 226 264 249 234 235 235 256 264 278 282 268 249 223 220 206 217 244 283 331 337 334 333 331 331 334 337 340 342 344 346 345 344 349 354 357 353 347 346 343
164 159 59 272 348 320 293 248 206 190 204 210 225 252 256 284 224 232 208 202 220 220 311 333 332 333 330 324 322 325 327 328 330 334 337 335 334 336 339 344 347 350 353 350
150 139 148 264 345 241 240 221 179 201 229 216 260 250 254 264 258 209 189 212 214 256 319 324 325 325 320 318 318 318 317 318 320 322 326 329 329 329 331 332 335 337 339 343
176 143 220 244 227 299 295 149 132 168 288 219 243 273 220 134 144 227 229 230 234 286 310 316 320 323 320 314 311 312 313 316 318 320 326 333 334 330 331 331 332 333 332 333
97 39 172 148 213 238 265 36 68 144 283 357 59 79 146 125 23 257 264 231 254 285 304 310 320 318 314 308 306 315 323 326 325 326 330 333 332 331 331 331 332 332 330 329
149 192 220 230 266 284 264 303 292 116 269 15 13 356 314 224 258 296 266 238 273 297 312 313 314 309 307 297 299 309 318 321 321 320 320 323 325 326 327 328 330 331 331 329
172 164 193 155 212 269 274 249 189 217 53 7 351 339 326 319 308 288 283 277 285 302 314 310 304 295 298 292 299 308 314 316 315 312 312 315 320 324 326 325 326 326 327 327
239 206 186 192 214 220 355 239 24 79 351 344 334 326 311 301 295 289 289 285 302 311 310 309 296 295 297 293 305 306 311 314 312 309 310 315 318 320 322 321 324 324 326 326
257 181 235 204 340 266 330 317 254 330 330 325 319 316 308 294 294 286 288 292 302 308 306 306 301 301 303 305 306 309 315 320 314 310 311 314 316 316 317 318 318 318 322 323
234 343 291 262 286 308 319 318 325 321 317 318 311 294 279 277 268 277 293 303 303 300 305 309 307 305 304 307 307 308 313 317 313 311 313 313 312 312 314 314 315 315 315 318
204 226 268 286 314 310 305 309 315 312 314 317 316 297 282 288 308 311 301 298 303 305 304 304 306 307 307 306 306 305 307 311 312 310 309 310 310 311 312 311 309 307 307 308
Height
1522 1535 1547 1539 1537 1537 1539 1541 1543 1541 1543 1541 1538 1535 1526 1520 1518 1515 1512 1516 1519 1521 1522 1525 1527 1528 1527 1526 1525 1524 1523 1521 1519 1517 1514 1513 1510 1507 1505 1502 1500 1497 1495 1492
1532 1544 1540 1539 1538 1539 1541 1544 1545 1544 1543 1544 1541 1533 1525 1520 1518 1516 1515 1516 1520 1522 1525 1526 1527 1527 1526 1525 1525 1523 1521 1519 1517 1515 1513 1510 1508 1506 1504 1502 1498 1496 1493 1491
1539 1543 1540 1540 1543 1543 1549 1547 1549 1552 1548 1545 1545 1532 1526 1521 1519 1518 1518 1520 1522 1526 1528 1527 1527 1526 1526 1526 1524 1522 1520 1517 1515 1513 1510 1509 1507 1505 1503 1500 1498 1495 1491 1489
1543 1542 1541 1542 1546 1546 1546 1551 1551 1552 1558 1564 1551 1557 1531 1524 1522 1521 1521 1523 1525 1527 1528 1527 1527 1526 1525 1524 1522 1520 1518 1516 1513 1510 1509 1507 1504 1502 1500 1497 1495 1493 1490 1488
1545 1544 1544 1545 1548 1546 1551 1552 1553 1555 1564 1567 1555 1573 1534 1527 1523 1521 1522 1525 1526 1527 1527 1526 1526 1524 1523 1522 1520 1519 1516 1514 1511 1509 1507 1505 1502 1500 1497 1495 1492 1489 1487 1485
1545 1545 1545 1546 1548 1549 1551 1555 1560 1564 1571 1585 1555 1567 1546 1531 1520 1521 1523 1525 1527 1526 1526 1527 1524 1523 1522 1522 1520 1518 1515 1513 1510 1508 1505 1503 1500 1497 1494 1492 1488 1485 1483 1481
1548 1548 1547 1547 1550 1551 1554 1564 1583 1580 1590 1572 1562 1570 1535 1522 1519 1519 1522 1523 1525 1525 1526 1525 1524 1523 1522 1521 1518 1516 1514 1511 1508 1506 1503 1500 1497 1494 1490 1487 1484 1481 1479 1477
1560 1563 1549 1549 1550 1552 1554 1561 1584 1568 1575 1574 1560 1557 1533 1521 1519 1518 1520 1522 1524 1525 1524 1523 1522 1522 1520 1519 1517 1514 1511 1508 1505 1502 1499 1497 1494 1490 1486 1483 1479 1477 1474 1472
1550 1549 1549 1549 1550 1552 1556 1564 1561 1574 1575 1578 1562 1539 1524 1519 1519 1519 1519 1520 1521 1522 1522 1522 1521 1520 1519 1517 1515 1512 1508 1505 1502 1498 1495 1491 1488 1485 1481 1478 1475 1472 1470 1467
1547 1555 1551 1551 1551 1553 1553 1557 1565 1577 1560 1559 1558 1543 1534 1523 1519 1517 1517 1517 1519 1520 1520 1520 1519 1519 1517 1515 1513 1510 1506 1502 1498 1494 1491 1487 1483 1479 1476 1472 1470 1467 1465 1462
1545 1552 1556 1553 1554 1553 1558 1558 1560 1565 1567 1559 1554 1541 1514 1514 1512 1513 1513 1515 1517 1518 1518 1519 1518 1517 1516 1513 1510 1506 1502 1498 1494 1490 1487 1483 1479 1475 1472 1468 1465 1462 1460 1457
1546 1554 1563 1549 1548 1548 1549 1550 1554 1566 1553 1566 1565 1541 1507 1506 1507 1509 1511 1513 1515 1516 1517 1517 1516 1515 1513 1510 1506 1502 1499 1495 1491 1487 1483 1479 1475 1471 1468 1464 1461 1458 1455 1452
1546 1554 1573 1554 1553 1549 1548 1546 1546 1552 1557 1557 1560 1528 1507 1507 1508 1509 1510 1511 1513 1514 1514 1514 1514 1513 1510 1507 1503 1499 1496 1491 1487 1483 1479 1476 1472 1468 1464 1460 1457 1454 1450 1447
1544 1554 1551 1558 1539 1543 1545 1542 1543 1544 1561 1546 1537 1519 1509 1509 1508 1507 1507 1509 1511 1512 1512 1512 1511 1510 1507 1504 1500 1496 1492 1488 1484 1480 1476 1472 1468 1464 1460 1456 1452 1449 1446 1443
1546 1552 1554 1547 1544 1542 1537 1535 1539 1544 1533 1532 1515 1519 1505 1505 1504 1501 1503 1506 1508 1508 1509 1509 1508 1506 1503 1499 1496 1493 1489 1485 1481 1477 1473 1470 1466 1463 1459 1455 1450 1446 1443 1439
1547 1548 1547 1544 1537 1539 1538 1531 1529 1528 1527 1527 1516 1510 1500 1496 1498 1500 1501 1504 1506 1507 1507 1507 1505 1503 1499 1496 1492 1488 1485 1482 1478 1475 1472 1468 1465 1461 1457 1453 1448 1444 1440 1436
1545 1548 1551 1544 1542 1538 1528 1513 1514 1517 1515 1513 1518 1496 1496 1495 1496 1495 1499 1501 1502 1504 1504 1503 1501 1498 1495 1493 1489 1486 1482 1479 1476 1473 1470 1466 1462 1458 1454 1451 1447 1442 1438 1434
1542 1544 1549 1548 1542 1540 1503 1501 1503 1506 1503 1502 1498 1494 1495 1494 1494 1494 1497 1499 1500 1501 1500 1499 1497 1495 1492 1489 1486 1483 1480 1477 1474 1470 1467 1463 1460 1456 1452 1448 1444 1440 1435 1431
1535 1540 1544 1542 1547 1525 1498 1500 1501 1502 1497 1496 1496 1494 1494 1494 1494 1495 1496 1497 1497 1497 1496 1495 1493 1489 1486 1484 1482 1480 1477 1474 1470 1466 1463 1460 1456 1453 1449 1444 1440 1436 1432 1428
1536 1537 1539 1549 1542 1524 1497 1499 1499 1498 1504 1495 1495 1494 1495 1496 1502 1497 1494 1494 1494 1493 1491 1489 1487 1484 1482 1480 1478 1476 1473 1470 1466 1463 1459 1456 1453 1449 1445 1441 1437 1433 1429 1424
1539 1542 1537 1537 1539 1524 1501 1500 1499 1505 1505 1498 1497 1497 1496 1496 1495 1492 1491 1491 1490 1489 1487 1484 1482 1480 1478 1476 1474 1472 1469 1466 1463 1459 1456 1452 1449 1445 1441 1437 1434 1429 1425 1421
1522 1530 1534 1538 1541 1532 1499 1500 1502 1500 1499 1499 1497 1496 1494 1492 1491 1489 1488 1487 1485 1484 1482 1480 1477 1475 1475 1472 1469 1466 1464 1461 1458 1455 1451 1448 1444 1441 1437 1433 1429 1425 1421 1416
1521 1510 1514 1515 1506 1496 1497 1496 1497 1497 1497 1496 1495 1493 1491 1488 1486 1484 1483 1482 1480 1478 1477 1474 1472 1470 1470 1468 1465 1462 1459 1455 1452 1449 1446 1442 1439 1435 1432 1427 1423 1418 1414 1410
1508 1507 1509 1505 1497 1496 1496 1496 1496 1495 1492 1491 1490 1487 1486 1483 1481 1480 1478 1477 1475 1474 1472 1470 1468 1466 1464 1463 1459 1456 1453 1450 1446 1443 1440 1436 1432 1428 1424 1421 1417 1412 1408 1403
1510 1508 1505 1501 1496 1493 1494 1495 1493 1490 1488 1485 1483 1481 1478 1477 1475 1473 1473 1474 1472 1470 1468 1466 1464 1461 1458 1456 1453 1451 1448 1444 1439 1435 1431 1427 1424 1420 1415 1412 1409 1404 1401 1397
1505 1504 1505 1498 1499 1497 1493 1490 1488 1485 1482 1480 1478 1477 1476 1474 1473 1471 1471 1470 1469 1466 1464 1462 1460 1456 1453 1449 1446 1443 1440 1437 1432 1427 1423 1419 1415 1411 1407 1403 1399 1398 1393 1389